Home > Weather > St. Croix Falls > Past weeks

Flag for USA Past Weather in St. Croix Falls, Wisconsin, USA — Yesterday and Last 2 Weeks

Now
61 °F

Fog.


Feels Like: 61 °F
Forecast: 58 / 81 °F
Wind: 5 mph from Southeast

Location: L O Simenstad Municipal Airport

Current Time: Aug 28, 2016 at 5:45:23 AM

Latest Report: Aug 28, 2016 at 5:15 AM


Visibility: 0 mi

Pressure: 30.15 "Hg

Humidity: 100%

Dew Point: 61 °F

Location of St. Croix FallsLocation

Past Weather in St. Croix Falls — Graph

°F

St. Croix Falls Temperature Yesterday

Maximum temperature yesterday: 69 °F (at 1:35 PM)
Minimum temperature yesterday: 57 °F (at 11:55 PM)
Average temperature yesterday: 63 °F

High & Low Weather Summary for the Past Weeks

 TemperatureHumidityPressure
High84 °F (Aug 16, 3:55 PM)100% (Aug 13, 4:15 AM)30.22 "Hg (Aug 13, 4:15 AM)
Low49 °F (Aug 26, 6:15 AM)43% (Aug 21, 5:15 PM)29.76 "Hg (Aug 20, 2:15 PM)
Average68 °F84%30.00 "Hg
* Reported Aug 13 4:15 AM — Aug 28 4:15 AM, St. Croix Falls, Weather by CustomWeather, © 2016

Note: Actual official high and low records may vary slightly from our data, if they occured in-between our weather recording intervals... More about our weather records

Advertising

St. Croix Falls Weather History for the Previous 24 Hours

Scroll right to see more
 ConditionsComfort  
Time TempWeatherWind HumidityBarometerVisibility
4:15 AM
Sun, Aug 28
61 °FFog.No wind100%30.15 "Hg0 mi
3:55 AM61 °FFog.No wind100%30.14 "Hg0 mi
3:35 AM60 °FFog.No wind100%30.13 "Hg0 mi
3:15 AM60 °FFog.No wind100%30.14 "Hg0 mi
2:55 AM60 °FFog.No wind100%30.14 "Hg0 mi
2:35 AM59 °FFog.No wind100%30.14 "Hg4 mi
2:15 AM59 °FMostly cloudy.No wind100%30.14 "Hg7 mi
1:55 AM58 °FMostly cloudy.No wind100%30.14 "Hg7 mi
1:15 AM56 °FFog.No wind100%30.13 "Hg1 mi
12:55 AM57 °FFog.No wind100%30.12 "Hg0 mi
12:35 AM57 °FFog.5 mph100%30.12 "Hg1 mi
12:15 AM56 °FFog.3 mph100%30.10 "Hg1 mi
11:55 PM
Sat, Aug 27
57 °FFog.No wind100%30.10 "Hg0 mi
11:35 PM60 °FFog.No wind100%30.11 "Hg0 mi
11:15 PM60 °FFog.No wind100%30.11 "Hg1 mi
10:55 PM61 °FFog.5 mph100%30.10 "Hg1 mi
10:15 PM63 °FPassing clouds.No wind100%30.10 "Hg10 mi
9:55 PM64 °FOvercast.No wind100%30.09 "Hg7 mi
9:35 PM64 °FOvercast.No wind100%30.09 "Hg10 mi
9:15 PM64 °FMostly cloudy.No wind100%30.07 "Hg10 mi
8:55 PM64 °FOvercast.No wind100%30.06 "Hg10 mi
8:35 PM64 °FCloudy.No wind100%30.05 "Hg10 mi
8:15 PM64 °FMore clouds than sun.No wind100%30.05 "Hg10 mi
7:55 PM64 °FMore clouds than sun.No wind100%30.05 "Hg10 mi
7:35 PM64 °FMostly cloudy.No wind100%30.05 "Hg10 mi
7:15 PM64 °FMostly cloudy.No wind100%30.04 "Hg7 mi
6:55 PM64 °FDrizzle. Low clouds.No wind100%30.04 "Hg4 mi
6:35 PM64 °FDrizzle. Overcast.No wind100%30.04 "Hg4 mi
6:15 PM64 °FRain. Overcast.3 mph100%30.04 "Hg3 mi
5:55 PM65 °FOvercast.5 mph89%30.04 "Hg10 mi
5:35 PM65 °FOvercast.6 mph87%30.04 "Hg10 mi
5:15 PM65 °FOvercast.6 mph85%30.03 "Hg10 mi
4:55 PM65 °FOvercast.5 mph84%30.02 "Hg10 mi
4:35 PM65 °FOvercast.7 mph83%30.03 "Hg10 mi
4:15 PM65 °FOvercast.9 mph83%30.03 "Hg10 mi
3:55 PM66 °FOvercast.7 mph82%30.03 "Hg10 mi
3:35 PM66 °FOvercast.8 mph82%30.03 "Hg10 mi
3:15 PM66 °FOvercast.8 mph81%30.03 "Hg10 mi
2:55 PM66 °FOvercast.7 mph79%30.04 "Hg10 mi
2:35 PM67 °FOvercast.9 mph77%30.04 "Hg10 mi
2:15 PM68 °FOvercast.13 mph73%30.04 "Hg10 mi
1:55 PM68 °FMostly cloudy.13 mph78%30.03 "Hg10 mi
1:35 PM69 °FMostly cloudy.8 mph78%30.03 "Hg10 mi
1:15 PM67 °FMostly cloudy.6 mph84%30.04 "Hg10 mi
12:55 PM66 °FMostly cloudy.8 mph99%30.04 "Hg10 mi
12:35 PM65 °FCloudy.8 mph100%30.06 "Hg10 mi
12:15 PM65 °FRain. Mostly cloudy.7 mph100%30.06 "Hg7 mi
11:50 AM65 °FDrizzle. Cloudy.6 mph100%30.07 "Hg10 mi
11:35 AM64 °FLight rain. Cloudy.3 mph100%30.08 "Hg10 mi
11:15 AM64 °FLight rain. Cloudy.No wind100%30.10 "Hg10 mi
10:55 AM64 °FLight rain. Cloudy.5 mph100%30.09 "Hg10 mi
10:35 AM64 °FMore clouds than sun.5 mph100%30.10 "Hg10 mi
10:15 AM64 °FBroken clouds.5 mph99%30.11 "Hg10 mi
9:55 AM64 °FLight rain. Broken clouds.6 mph100%30.11 "Hg10 mi
9:35 AM63 °FBroken clouds.6 mph100%30.11 "Hg10 mi
9:15 AM63 °FMore clouds than sun.5 mph100%30.11 "Hg10 mi
8:55 AM62 °FMore clouds than sun.3 mph100%30.12 "Hg10 mi
8:35 AM61 °FMore clouds than sun.No wind100%30.12 "Hg10 mi
8:15 AM61 °FMore clouds than sun.6 mph100%30.12 "Hg10 mi
7:55 AM61 °FMore clouds than sun.3 mph100%30.12 "Hg10 mi
7:15 AM60 °FMostly cloudy.No wind100%30.12 "Hg10 mi
6:55 AM60 °FLight rain. Overcast.No wind100%30.11 "Hg10 mi
6:35 AM60 °FOvercast.No wind100%30.11 "Hg10 mi
6:15 AM60 °FOvercast.3 mph100%30.10 "Hg10 mi
5:55 AM60 °FMostly cloudy.3 mph100%30.10 "Hg10 mi
5:35 AM60 °FOvercast.No wind100%30.10 "Hg10 mi
5:15 AM60 °FOvercast.No wind100%30.10 "Hg10 mi
Weather by CustomWeather, © 2016

See weather overviewHow to use our weather pages